Location: *
(44.3526°S, 44.9014°W)
Time: 22:35:40
(UTC+00:00)

Cosmos 2227 - Pass Details

Date: 13 May 2025
Orbit: 834 x 859 km, 71.0° (Epoch: 14 June)

Event Time Altitude Azimuth Distance (km) Brightness Sun altitude
Rises 20:19:33 0° 350° (N) 3,393 7.8 -6.6°
Reaches altitude 10° 20:22:01 10° 353° (N) 2,470 7.0 -7.1°
Maximum altitude 20:27:34 57° 70° (ENE) 1,004 4.4 -8.0°
Drops below altitude 10° 20:33:13 10° 147° (SSE) 2,516 6.2 -9.0°
Enters shadow 20:35:23 - 150° (SSE) 3,328 6.9 -9.3°
